Track RADIO ROSTO now! 10-day predictions RADIO ROSTO is classified as:
1 23439U 94085A 26254.76519189 -.00000039 00000-0 10187-3 0 9995 2 23439 64.8166 163.1943 0159037 348.2961 11.4285 11.27583961305663